Grimes Field (I74)

 

Airport Diagram
No Airport Diagram Available
Current Weather/Forecast (VFR Conditions)
METAR KI74 182255Z AUTO 31007KT 10SM CLR 14/M07 A2988 RMK AO2
TAF

Airport Information

All Charts
General
Chart Name View
TAKEOFF MINIMUMS
ALTERNATE MINIMUMS
TAKEOFF MINIMUMS
ALTERNATE MINIMUMS

Approaches
Chart Name Download
RNAV (GPS) RWY 02
RNAV (GPS) RWY 20
VOR-A
RNAV (GPS) RWY 02
RNAV (GPS) RWY 20
VOR-A


Airport Statistics
Departures Arrivals Local
All Collected Stats since June 2016: 3 5 0
2021 Stats: 2 1 0
April Stats: 0 0 0

Inbound Traffic (Arrivals) - 0

No inbound traffic.


Outbound Traffic (Departures) - 0

No outbound traffic.


Local Traffic (Pattern) - 0

No local traffic.